Location: Asbacherhof
(48.8543°N, 10.7903°E)
Time: 22:49:17
(UTC+00:00)

Cosmos 2228 - Pass Details

Date: 26 May 2022
Orbit: 586 x 617 km, 82.5° (Epoch: 26 June)

Event Time Altitude Azimuth Distance (km) Brightness Sun altitude
Rises 01:55:39 0° 349° (NNW) 2,895 7.1 -11.3°
Reaches altitude 10° 01:57:54 10° 348° (NNW) 1,982 6.2 -11.1°
Maximum altitude 02:02:17 78° 263° (W) 629 3.0 -10.6°
Drops below altitude 10° 02:06:35 10° 177° (S) 1,948 5.2 -10.2°
Enters shadow 02:07:41 - 176° (S) 2,390 5.6 -10.0°
